Simultaneous Nadir Overpasses (SNOs) Predictions

Prediction of SNOs between LANDSAT-8 and NOAA-19 Satellite Orbit:

Table of predicted SNOs for the next 14.0 days since TLE Epoch: 7/29/2023
Index Date (LANDSAT-8) Time (LANDSAT-8) Lat,Lon (LANDSAT-8) SZA (LANDSAT-8 ) Date (NOAA-19) Time (NOAA-19) Lat,Lon (NOAA-19) SZA (NOAA-19 ) Distance(km) Time Diff (sec)
1 07/30/2023 15:33:25 -80.95, 164.21 115.73 07/30/2023 15:33:29 -80.94, 164.11 115.75 2.19 4
2 08/01/2023 21:07:11 80.92, -99.65 64.76 08/01/2023 21:05:59 80.94, -99.51 64.76 2.95 72
3 08/01/2023 21:56:37 -80.95, 68.32 115.19 08/01/2023 21:56:55 -80.94, 68.26 115.19 1.33 18
4 08/04/2023 03:30:22 80.93, 164.69 65.37 08/04/2023 03:29:24 80.94, 164.73 65.35 0.91 58
5 08/04/2023 04:19:49 -80.93, -27.67 114.63 08/04/2023 04:20:21 -80.94, -27.65 114.61 0.82 32
6 08/06/2023 09:53:33 80.93, 68.93 65.99 08/06/2023 09:52:49 80.94, 68.92 65.97 0.31 44
7 08/06/2023 10:43:00 -80.94,-123.41 114.00 08/06/2023 10:43:46 -80.94,-123.24 113.96 3.01 46
8 08/08/2023 16:16:44 80.93, -26.93 66.61 08/08/2023 16:16:14 80.93, -26.96 66.60 0.86 30
9 08/08/2023 17:06:11 -80.93, 140.75 113.37 08/08/2023 17:07:12 -80.94, 140.75 113.34 0.73 61
10 08/10/2023 22:39:54 80.94,-122.54 67.30 08/10/2023 22:39:38 80.94,-122.52 67.30 0.70 16



Historial Predications of SNOs between LANDSAT-8 and NOAA-19
